Location: Taylor Dark Sky Site
(39.1017°N, 87.9564°W)
Time: 15:04:42
(UTC-05:00)

Amateur Radio Satellites - All Passes

Search period start: 30 March 2015 14:34
Search period end: 31 March 2015 14:34
Location: Taylor Dark Sky Site, 39.1017°N, 87.9564°W

Satellite Date Start Highest point End Downlink Frequencies (MHz)
Time Altitude Azimuth
SWISSCUBE 30 Mar 14:34:59 14:39:49 89° 130° (SE) 14:44:35 437.505
BEESAT 30 Mar 14:37:45 14:42:34 88° 103° (ESE) 14:47:21 436.000
ITAMSAT 1 30 Mar 14:52:06 14:57:12 52° 260° (W) 15:02:18 435.822/435.867
STARS 30 Mar 14:58:27 15:01:08 16° 92° (E) 15:03:59 437.465
JAS-2 30 Mar 15:01:47 15:07:16 26° 62° (ENE) 15:13:21 435.910
PCSat 30 Mar 15:08:26 15:13:49 66° 300° (WNW) 15:19:14 145.827
YUBILEINY 30 Mar 15:18:52 15:26:52 36° 289° (WNW) 15:34:44 435.215
ITUPSAT 1 30 Mar 15:25:52 15:30:06 31° 291° (WNW) 15:34:15 437.325
HORYU 2 30 Mar 15:38:00 15:42:25 86° 79° (ENE) 15:46:54 437.375
AO-7 30 Mar 15:41:01 15:49:12 67° 69° (ENE) 15:57:26 29.400- 29.500
AIST 1 30 Mar 15:48:56 15:53:11 57° 266° (W) 15:57:21
Gurwin Techsat 1B 30 Mar 15:49:28 15:53:26 20° 268° (W) 15:57:14 435.225
JUGNU 30 Mar 16:00:50 16:02:25 11° 183° (S) 16:03:57 437.505
KKS-1 30 Mar 16:04:21 16:08:44 57° 286° (WNW) 16:13:04 437.445
BEESAT 30 Mar 16:19:15 16:19:47 10° 298° (WNW) 16:20:01 436.000
STARS 30 Mar 16:33:40 16:37:50 42° 288° (WNW) 16:42:00 437.465
JAS-2 30 Mar 16:44:52 16:51:41 65° 260° (W) 16:59:16 435.910
PCSat 30 Mar 16:56:26 16:58:24 12° 322° (NW) 17:00:08 145.827
SRMSAT 30 Mar 17:02:17 17:03:58 11° 180° (S) 17:05:38 437.500
CUTE-I 30 Mar 17:23:05 17:27:20 25° 67° (ENE) 17:31:41 437.470
Cubesat XI-IV 30 Mar 17:23:35 17:27:53 26° 67° (ENE) 17:32:18 437.490
AO-7 30 Mar 17:35:59 17:42:41 25° 267° (W) 17:49:05 29.400- 29.500
BEESAT 2 30 Mar 17:43:45 17:44:22 10° 39° (NE) 17:45:11 435.950
GONETS M04 30 Mar 17:45:27 17:48:11 12° 77° (ENE) 17:51:40
MOZHAYETS 4 30 Mar 17:48:02 17:52:42 79° 285° (WNW) 17:57:20
CUBESAT XI-V 30 Mar 18:04:43 18:05:27 10° 87° (E) 18:06:30 437.345
RS-15 30 Mar 18:06:06 18:15:33 38° 108° (ESE) 18:25:20 29.354- 29.394
AUBIESAT-1 30 Mar 18:08:00 18:12:39 45° 103° (ESE) 18:17:09 437.475
BEESAT 3 30 Mar 18:17:15 18:20:32 23° 48° (NE) 18:23:50 437.485
PRISM 30 Mar 18:20:53 18:21:42 11° 89° (E) 18:22:49 437.425
M-CUBED/EXP-1 PRIME 30 Mar 18:33:27 18:38:21 86° 285° (WNW) 18:43:04 437.505
SO-50 30 Mar 18:41:04 18:45:36 66° 119° (ESE) 18:50:20 436.795
AIST 2 30 Mar 19:01:19 19:04:32 21° 46° (NE) 19:07:47 435.215
CUTE-I 30 Mar 19:02:10 19:07:13 40° 262° (W) 19:12:15 437.470
Cubesat XI-IV 30 Mar 19:02:47 19:07:49 40° 262° (W) 19:12:50 437.490
BEESAT 2 30 Mar 19:19:07 19:23:17 82° 58° (ENE) 19:27:21 435.950
STRAND 1 30 Mar 19:20:30 19:25:13 37° 97° (E) 19:29:56 437.568
GONETS M04 30 Mar 19:35:05 19:43:42 75° 95° (E) 19:52:27
CUBESAT XI-V 30 Mar 19:38:53 19:43:30 69° 284° (WNW) 19:48:03 437.345
CANX-2 30 Mar 19:40:09 19:42:13 14° 66° (ENE) 19:44:29 2200.000
AUBIESAT-1 30 Mar 19:43:31 19:47:09 21° 298° (WNW) 19:50:35 437.475
BRITE-PL 30 Mar 19:46:03 19:50:02 29° 72° (ENE) 19:53:51 437.365/2234.400
CUTE 1.7 + AOD 2 30 Mar 19:53:09 19:55:52 17° 68° (ENE) 19:58:45 437.475
PRISM 30 Mar 19:53:32 19:57:39 57° 286° (WNW) 20:01:42 437.425
HO-68 30 Mar 19:54:44 20:01:12 39° 66° (ENE) 20:07:46 435.675
BEESAT 3 30 Mar 19:54:57 19:58:40 32° 245° (WSW) 20:02:16 437.485
DOVE 4 30 Mar 20:08:40 20:11:48 20° 70° (ENE) 20:14:59 437.250
M-CUBED/EXP-1 PRIME 30 Mar 20:11:01 20:12:31 11° 303° (WNW) 20:13:46 437.505
AAUSAT CUBESAT 2 30 Mar 20:12:29 20:15:04 17° 68° (ENE) 20:17:48 437.432
RS-15 30 Mar 20:16:43 20:27:28 60° 309° (NW) 20:38:25 29.354- 29.394
SEEDS 30 Mar 20:19:23 20:22:56 28° 71° (ENE) 20:26:36 437.485
SO-50 30 Mar 20:23:27 20:26:40 18° 318° (NW) 20:29:52 436.795
GOMX 1 30 Mar 20:25:21 20:29:39 48° 74° (ENE) 20:33:46 467.674
AIST 2 30 Mar 20:39:19 20:43:19 40° 244° (WSW) 20:47:12 435.215
COMPASS 1 30 Mar 20:39:20 20:43:12 38° 72° (ENE) 20:47:08 437.405
DANDE 30 Mar 20:42:29 20:44:57 22° 97° (E) 20:47:12 436.750
Oscar 11 30 Mar 20:47:46 20:50:52 20° 68° (ENE) 20:54:06 145.826/435.025
STRAND 1 30 Mar 21:00:06 21:04:15 25° 293° (WNW) 21:08:16 437.568
FUNcube-1 30 Mar 21:02:19 21:04:21 14° 67° (ENE) 21:06:35 145.935
UWE-3 30 Mar 21:09:16 21:12:20 21° 69° (ENE) 21:15:30 435.000/436.395/437.385
ISS 30 Mar 21:12:31 21:14:00 13° 130° (SE) 21:15:37 145.825
CANX-2 30 Mar 21:13:40 21:17:47 50° 261° (W) 21:21:56 2200.000
CINEMA 3 30 Mar 21:13:55 21:18:01 55° 75° (ENE) 21:22:05 145.822/145.860
ZACube-1 30 Mar 21:14:47 21:17:42 19° 69° (ENE) 21:20:45 437.345
CUBEBUG 2 30 Mar 21:16:43 21:20:21 30° 71° (ENE) 21:24:02 437.445
DELFI C3 30 Mar 21:17:25 21:20:59 31° 72° (ENE) 21:24:38 145.870
BRITE-PL 30 Mar 21:24:43 21:28:35 24° 265° (W) 21:32:10 437.365/2234.400
CUSAT 1 30 Mar 21:26:49 21:29:27 34° 282° (WNW) 21:31:51 437.405
CUTE 1.7 + AOD 2 30 Mar 21:27:35 21:31:33 38° 263° (W) 21:35:32 437.475
GONETS M04 30 Mar 21:34:58 21:41:37 23° 296° (WNW) 21:47:57
HO-68 30 Mar 21:42:16 21:48:55 39° 263° (W) 21:55:32 435.675
DOVE 4 30 Mar 21:45:36 21:49:29 30° 264° (W) 21:53:12 437.250
AAUSAT CUBESAT 2 30 Mar 21:46:30 21:50:26 39° 263° (W) 21:54:22 437.432
HUMSAT D 30 Mar 21:53:38 21:57:00 26° 70° (ENE) 22:00:29 437.325/437.525
UKube-1 30 Mar 21:53:42 21:57:45 41° 72° (ENE) 22:01:52 .
SEEDS 30 Mar 21:55:24 21:58:46 23° 266° (W) 22:02:05 437.485
ESTCUBE 1 30 Mar 21:58:28 21:59:40 11° 64° (ENE) 22:01:08 437.505/2401.250
DX 1 30 Mar 22:05:38 22:09:55 61° 74° (ENE) 22:14:15 434.975-435.025
GOMX 1 30 Mar 22:05:48 22:08:06 13° 269° (W) 22:10:08 467.674
PCSat 30 Mar 22:16:01 22:18:26 13° 40° (NE) 22:21:04 145.827
COMPASS 1 30 Mar 22:16:22 22:19:06 16° 269° (W) 22:21:41 437.405
50 SAT 30 Mar 22:22:35 22:26:09 35° 73° (ENE) 22:29:47 437.505
Oscar 11 30 Mar 22:22:56 22:26:52 33° 264° (W) 22:30:48 145.826/435.025
RS-15 30 Mar 22:34:50 22:42:59 22° 339° (NNW) 22:51:04 29.354- 29.394
FUNcube-1 30 Mar 22:36:22 22:40:21 46° 261° (W) 22:44:22 145.935
NANOSAT C BR1 30 Mar 22:44:07 22:44:30 10° 88° (E) 22:45:10 145.865
UWE-3 30 Mar 22:45:07 22:48:45 29° 264° (W) 22:52:23 435.000/436.395/437.385
ISS 30 Mar 22:46:52 22:50:05 61° 324° (NW) 22:53:19 145.825
CUBEBUG 1 30 Mar 22:47:43 22:51:37 32° 71° (ENE) 22:55:33 437.445
POLYITAN 1 30 Mar 22:48:31 22:50:13 12° 90° (E) 22:52:10 437.675
ZACube-1 30 Mar 22:50:11 22:53:55 31° 264° (W) 22:57:38 437.345
VELOX 1 30 Mar 22:51:31 22:55:59 82° 76° (ENE) 23:00:26 145.980
DELFI C3 30 Mar 22:53:17 22:56:15 19° 267° (W) 22:59:08 145.870
CUBEBUG 2 30 Mar 22:54:05 22:57:10 19° 267° (W) 23:00:07 437.445
CINEMA 3 30 Mar 22:54:39 22:55:41 11° 271° (W) 22:56:26 145.822/145.860
AISAT 30 Mar 22:56:53 23:01:20 85° 255° (WSW) 23:05:49 437.250
UNISAT 6 30 Mar 23:02:53 23:07:12 39° 98° (E) 23:11:36 437.425
TIGRISAT 30 Mar 23:12:19 23:16:46 48° 99° (E) 23:21:17 435.000
QB50P1 30 Mar 23:23:11 23:26:57 31° 96° (E) 23:30:44 145.935-145.965
DUCHIFAT 1 30 Mar 23:24:08 23:27:52 31° 96° (E) 23:31:40 145.980
HUMSAT D 30 Mar 23:29:29 23:32:46 23° 266° (W) 23:36:00 437.325/437.525
UKube-1 30 Mar 23:31:22 23:34:09 16° 268° (W) 23:36:46 .
ESTCUBE 1 30 Mar 23:31:28 23:36:01 74° 258° (WSW) 23:40:35 437.505/2401.250
YUBILEINY 30 Mar 23:33:49 23:40:08 22° 64° (ENE) 23:46:46 435.215
QB50P2 30 Mar 23:38:19 23:42:25 48° 99° (E) 23:46:33 145.880/145.840
ANTELSAT 30 Mar 23:43:21 23:47:57 76° 285° (WNW) 23:52:37 437.575/2403.000
DX 1 30 Mar 23:45:17 23:46:39 11° 271° (W) 23:47:45 434.975-435.025
PCSat 30 Mar 23:57:25 00:02:53 77° 61° (ENE) 00:08:17 145.827
BUGSAT 1 30 Mar 23:57:42 00:01:39 54° 100° (E) 00:05:36 437.445
50 SAT 30 Mar 23:58:53 00:01:15 15° 269° (W) 00:03:29 437.505
POPSAT HIP 1 31 Mar 00:06:39 00:10:54 80° 284° (WNW) 00:15:08 437.405
TISAT 1 31 Mar 00:10:16 00:14:23 56° 74° (ENE) 00:18:31 437.305
NANOSAT C BR1 31 Mar 00:16:39 00:20:50 61° 285° (WNW) 00:25:01 145.865
POLYITAN 1 31 Mar 00:22:23 00:26:32 51° 286° (WNW) 00:30:39 437.675
CUBEBUG 1 31 Mar 00:24:37 00:28:04 21° 267° (W) 00:31:23 437.445
ISS 31 Mar 00:25:13 00:27:02 14° 342° (NNW) 00:28:49 145.825
SPROUT 31 Mar 00:26:19 00:30:36 79° 258° (WSW) 00:34:54 437.525
UNISAT 6 31 Mar 00:40:20 00:43:46 20° 292° (WNW) 00:47:05 437.425
TIGRISAT 31 Mar 00:50:12 00:53:11 17° 293° (WNW) 00:56:02 435.000
RS-15 31 Mar 00:53:39 01:01:06 19° 14° (NNE) 01:08:58 29.354- 29.394
ITUPSAT 1 31 Mar 00:54:06 00:58:07 27° 69° (ENE) 01:02:12 437.325
QB50P1 31 Mar 00:59:27 01:02:40 21° 291° (WNW) 01:05:48 145.935-145.965
DUCHIFAT 1 31 Mar 01:00:22 01:03:34 21° 291° (WNW) 01:06:40 145.980
QB50P2 31 Mar 01:15:37 01:17:59 14° 294° (WNW) 01:20:11 145.880/145.840
KKS-1 31 Mar 01:28:36 01:29:30 11° 64° (ENE) 01:30:39 437.445
YUBILEINY 31 Mar 01:29:14 01:38:04 77° 266° (W) 01:46:47 435.215
BUGSAT 1 31 Mar 01:35:17 01:36:45 11° 294° (WNW) 01:38:00 437.445
SWISSCUBE 31 Mar 01:40:18 01:45:07 90° 45° (NE) 01:49:58 437.505
BEESAT 31 Mar 01:42:58 01:47:46 88° 82° (E) 01:52:36 436.000
PCSat 31 Mar 01:43:09 01:45:42 13° 255° (WSW) 01:47:57 145.827
TISAT 1 31 Mar 01:49:17 01:50:37 11° 271° (W) 01:51:42 437.305
STARS 31 Mar 01:55:29 01:57:31 13° 65° (ENE) 01:59:45 437.465
Oscar 19 31 Mar 01:56:52 02:01:46 42° 98° (E) 02:06:42 437.125/150
Gurwin Techsat 1B 31 Mar 02:26:12 02:30:02 21° 92° (E) 02:34:02 435.225
ITUPSAT 1 31 Mar 02:31:42 02:35:57 30° 264° (W) 02:40:09 437.325
O/OREOS (USA 219) 31 Mar 02:57:48 03:00:43 17° 101° (E) 03:03:49 437.305
KKS-1 31 Mar 03:01:12 03:05:37 73° 258° (WSW) 03:10:03 437.445
ITAMSAT 1 31 Mar 03:05:59 03:11:07 61° 101° (ESE) 03:16:13 435.822/435.867
RS-15 31 Mar 03:06:41 03:17:31 47° 45° (NE) 03:28:56 29.354- 29.394
SO-50 31 Mar 03:13:37 03:18:23 45° 53° (NE) 03:23:06 436.795
STARS 31 Mar 03:29:16 03:33:34 55° 260° (W) 03:37:52 437.465
YUBILEINY 31 Mar 03:29:41 03:33:35 13° 283° (WNW) 03:36:45 435.215
HORYU 2 31 Mar 03:31:29 03:34:32 18° 92° (E) 03:37:44 437.375
Oscar 19 31 Mar 03:36:51 03:40:54 23° 293° (WNW) 03:44:49 437.125/150
ISS 31 Mar 03:39:40 03:42:00 18° 22° (NNE) 03:44:22 145.825
AO-7 31 Mar 03:45:05 03:51:02 22° 91° (E) 03:57:19 29.400- 29.500
M-CUBED/EXP-1 PRIME 31 Mar 03:50:11 03:50:52 10° 56° (ENE) 03:51:48 437.505
JAS-2 31 Mar 03:57:07 04:02:57 24° 88° (E) 04:08:38 435.910
Gurwin Techsat 1B 31 Mar 04:05:13 04:10:18 47° 289° (WNW) 04:15:21 435.225
AIST 1 31 Mar 04:16:45 04:21:10 88° 97° (E) 04:25:35
O/OREOS (USA 219) 31 Mar 04:35:28 04:39:51 43° 296° (WNW) 04:44:14 437.305
VERMONT LUNAR 31 Mar 04:42:00 04:45:04 34° 155° (SSE) 04:48:09 437.305
ITAMSAT 1 31 Mar 04:46:54 04:50:10 17° 296° (WNW) 04:53:14 435.822/435.867
MOZHAYETS 4 31 Mar 04:48:35 04:53:13 85° 74° (ENE) 04:57:53
SO-50 31 Mar 04:54:50 04:58:41 22° 249° (WSW) 05:02:22 436.795
AUBIESAT-1 31 Mar 04:55:10 04:59:02 45° 67° (ENE) 05:03:17 437.475
HORYU 2 31 Mar 05:07:10 05:11:23 39° 289° (WNW) 05:15:34 437.375
CUBESAT XI-V 31 Mar 05:07:52 05:08:39 10° 63° (ENE) 05:09:43 437.345
ISS 31 Mar 05:15:30 05:18:43 71° 221° (SW) 05:21:55 145.825
RS-15 31 Mar 05:19:09 05:30:21 56° 247° (WSW) 05:41:53 29.354- 29.394
M-CUBED/EXP-1 PRIME 31 Mar 05:21:03 05:25:04 79° 253° (WSW) 05:29:29 437.505
AO-7 31 Mar 05:36:23 05:44:40 74° 290° (WNW) 05:52:56 29.400- 29.500
PHONESAT 2.4 31 Mar 05:37:25 05:40:42 38° 155° (SSE) 05:44:00 2401.200-2431.200
JAS-2 31 Mar 05:41:00 05:48:38 64° 288° (WNW) 05:55:34 435.910
GONETS M04 31 Mar 05:47:04 05:54:54 35° 71° (ENE) 06:02:53
VERMONT LUNAR 31 Mar 06:19:17 06:22:38 79° 350° (N) 06:25:59 437.305
AUBIESAT-1 31 Mar 06:31:51 06:34:15 15° 266° (W) 06:36:35 437.475
STRAND 1 31 Mar 06:35:09 06:40:04 49° 72° (ENE) 06:45:03 437.568
CUBESAT XI-V 31 Mar 06:40:48 06:45:31 82° 258° (WSW) 06:50:14 437.345
PRISM 31 Mar 06:42:18 06:46:32 88° 68° (ENE) 06:50:46 437.425
PHONESAT 2.4 31 Mar 07:15:24 07:18:55 78° 350° (N) 07:22:28 2401.200-2431.200
CUTE-I 31 Mar 07:20:01 07:25:22 88° 98° (E) 07:30:42 437.470
DANDE 31 Mar 07:20:29 07:24:07 26° 77° (ENE) 07:28:48 436.750
Cubesat XI-IV 31 Mar 07:20:48 07:26:09 90° 348° (NNW) 07:31:29 437.490
JAS-2 31 Mar 07:29:02 07:32:14 13° 306° (NW) 07:34:56 435.910
AO-7 31 Mar 07:31:26 07:36:17 16° 309° (NW) 07:40:42 29.400- 29.500
GONETS M04 31 Mar 07:43:37 07:52:03 50° 270° (W) 08:00:22
VERMONT LUNAR 31 Mar 07:57:05 08:00:26 73° 7° (N) 08:03:47 437.305
CUSAT 1 31 Mar 08:01:16 08:05:50 89° 271° (W) 08:12:00 437.405
STRAND 1 31 Mar 08:15:57 08:19:36 19° 268° (W) 08:23:05 437.568
GOMX 1 31 Mar 08:28:57 08:31:18 15° 91° (E) 08:33:56 467.674
PHONESAT 2.4 31 Mar 08:53:51 08:57:24 76° 9° (N) 09:00:56 2401.200-2431.200
CANX-2 31 Mar 09:00:23 09:04:09 29° 95° (E) 09:07:57 2200.000
CUTE-I 31 Mar 09:02:43 09:04:47 12° 299° (WNW) 09:06:34 437.470
DANDE 31 Mar 09:03:31 09:07:21 28° 263° (W) 09:12:08 436.750
Cubesat XI-IV 31 Mar 09:03:38 09:05:34 12° 299° (WNW) 09:07:12 437.490
HO-68 31 Mar 09:10:34 09:17:21 44° 98° (E) 09:24:10 435.675
CINEMA 3 31 Mar 09:10:40 09:13:10 15° 91° (E) 09:15:56 145.822/145.860
BEESAT 2 31 Mar 09:13:11 09:16:10 20° 112° (ESE) 09:19:18 435.950
CUTE 1.7 + AOD 2 31 Mar 09:13:50 09:17:50 37° 97° (E) 09:21:52 437.475
BRITE-PL 31 Mar 09:29:01 09:33:15 75° 283° (WNW) 09:37:42 437.365/2234.400
AAUSAT CUBESAT 2 31 Mar 09:30:43 09:34:35 34° 96° (E) 09:38:26 437.432
VERMONT LUNAR 31 Mar 09:34:52 09:38:03 42° 203° (SSW) 09:41:14 437.305
SEEDS 31 Mar 09:39:54 09:44:10 64° 100° (E) 09:48:25 437.485
DOVE 4 31 Mar 09:44:27 09:48:50 69° 101° (E) 09:53:27 437.250
BEESAT 3 31 Mar 09:46:41 09:50:41 57° 118° (ESE) 09:54:45 437.485
DX 1 31 Mar 09:57:41 09:58:47 11° 89° (E) 10:00:10 434.975-435.025
COMPASS 1 31 Mar 09:59:14 10:03:32 87° 102° (ESE) 10:07:46 437.405
UNISAT 6 31 Mar 10:01:25 10:05:04 29° 70° (ENE) 10:08:51 437.425
GOMX 1 31 Mar 10:05:35 10:09:43 46° 286° (WNW) 10:14:04 467.674
TIGRISAT 31 Mar 10:10:28 10:14:19 35° 72° (ENE) 10:18:16 435.000
Oscar 11 31 Mar 10:11:00 10:15:12 45° 98° (E) 10:19:24 145.826/435.025
QB50P1 31 Mar 10:15:33 10:18:41 21° 69° (ENE) 10:21:56 145.935-145.965
DUCHIFAT 1 31 Mar 10:16:13 10:19:20 21° 69° (ENE) 10:22:33 145.980
FUNcube-1 31 Mar 10:25:38 10:29:39 34° 97° (E) 10:33:46 145.935
QB50P2 31 Mar 10:30:29 10:34:11 31° 71° (ENE) 10:37:57 145.880/145.840
PHONESAT 2.4 31 Mar 10:32:18 10:35:38 40° 204° (SSW) 10:38:59 2401.200-2431.200
DELFI C3 31 Mar 10:32:47 10:36:53 63° 100° (E) 10:40:55 145.870
UWE-3 31 Mar 10:35:05 10:39:28 56° 100° (E) 10:43:58 435.000/436.395/437.385
AIST 2 31 Mar 10:35:48 10:39:57 55° 118° (ESE) 10:44:10 435.215
CANX-2 31 Mar 10:36:32 10:39:58 23° 290° (WNW) 10:43:18 2200.000
ZACube-1 31 Mar 10:39:08 10:43:25 49° 99° (E) 10:47:48 437.345
ANTELSAT 31 Mar 10:41:24 10:45:39 84° 77° (ENE) 10:50:01 437.575/2403.000
CUBEBUG 2 31 Mar 10:44:24 10:48:53 87° 102° (ESE) 10:53:29 437.445
VELOX 1 31 Mar 10:44:33 10:47:17 17° 92° (E) 10:50:11 145.980
CINEMA 3 31 Mar 10:46:22 10:50:40 48° 286° (WNW) 10:55:08 145.822/145.860
BUGSAT 1 31 Mar 10:46:52 10:50:35 33° 72° (ENE) 10:54:19 437.445
AISAT 31 Mar 10:49:49 10:52:58 20° 93° (E) 10:56:16 437.250
BEESAT 2 31 Mar 10:50:19 10:54:07 35° 308° (NW) 10:57:58 435.950
CUTE 1.7 + AOD 2 31 Mar 10:50:31 10:53:31 18° 292° (WNW) 10:56:24 437.475
POPSAT HIP 1 31 Mar 10:58:15 11:02:25 65° 76° (ENE) 11:06:36 437.405
HO-68 31 Mar 10:58:32 11:04:58 35° 295° (WNW) 11:11:16 435.675
AAUSAT CUBESAT 2 31 Mar 11:06:56 11:10:01 19° 291° (WNW) 11:12:58 437.432
NANOSAT C BR1 31 Mar 11:07:55 11:12:08 85° 78° (ENE) 11:16:22 145.865
HUMSAT D 31 Mar 11:13:37 11:17:51 59° 101° (E) 11:22:06 437.325/437.525
POLYITAN 1 31 Mar 11:14:06 11:18:19 80° 258° (WSW) 11:22:33 437.675
SEEDS 31 Mar 11:18:02 11:19:30 11° 295° (WNW) 11:20:45 437.485
UKube-1 31 Mar 11:18:08 11:22:29 89° 295° (WNW) 11:26:48 .
DOVE 4 31 Mar 11:24:51 11:26:13 11° 294° (WNW) 11:27:20 437.250
ESTCUBE 1 31 Mar 11:26:00 11:29:41 25° 94° (E) 11:33:25 437.505/2401.250
BEESAT 3 31 Mar 11:26:35 11:29:08 15° 316° (NW) 11:31:35 437.485
DX 1 31 Mar 11:31:14 11:35:31 59° 286° (WNW) 11:39:46 434.975-435.025
50 SAT 31 Mar 11:35:48 11:39:50 71° 101° (E) 11:43:53 437.505
UNISAT 6 31 Mar 11:38:31 11:41:55 22° 267° (W) 11:45:16 437.425
TIGRISAT 31 Mar 11:48:15 11:51:15 18° 268° (W) 11:54:09 435.000
Oscar 11 31 Mar 11:48:21 11:51:03 16° 293° (WNW) 11:53:36 145.826/435.025
QB50P1 31 Mar 11:50:41 11:54:26 30° 264° (W) 11:58:08 145.935-145.965
DUCHIFAT 1 31 Mar 11:51:17 11:55:01 30° 264° (W) 11:58:44 145.980
FUNcube-1 31 Mar 12:02:27 12:05:49 21° 291° (WNW) 12:09:08 145.935
QB50P2 31 Mar 12:07:00 12:10:11 20° 267° (W) 12:13:15 145.880/145.840
DELFI C3 31 Mar 12:10:38 12:11:34 10° 295° (WNW) 12:12:17 145.870
UWE-3 31 Mar 12:13:16 12:15:38 14° 294° (WNW) 12:17:50 435.000/436.395/437.385
CUBEBUG 1 31 Mar 12:13:28 12:17:49 77° 103° (ESE) 12:22:07 437.445
SPROUT 31 Mar 12:15:05 12:18:07 19° 93° (E) 12:21:17 437.525
AIST 2 31 Mar 12:16:03 12:18:55 17° 316° (NW) 12:21:42 435.215
ZACube-1 31 Mar 12:16:49 12:19:27 15° 293° (WNW) 12:21:58 437.345
VELOX 1 31 Mar 12:19:57 12:24:06 41° 288° (WNW) 12:28:13 145.980
BUGSAT 1 31 Mar 12:23:14 12:26:11 18° 267° (W) 12:29:00 437.445
AISAT 31 Mar 12:25:42 12:29:43 34° 289° (WNW) 12:33:41 437.250
YUBILEINY 31 Mar 12:34:03 12:40:41 26° 83° (E) 12:47:40 435.215
ITAMSAT 1 31 Mar 12:48:39 12:49:11 10° 60° (ENE) 12:50:03 435.822/435.867
HUMSAT D 31 Mar 12:51:25 12:53:12 12° 294° (WNW) 12:54:46 437.325/437.525
PCSat 31 Mar 12:59:30 13:00:21 10° 104° (ESE) 13:01:35 145.827
ESTCUBE 1 31 Mar 13:02:39 13:06:34 29° 290° (WNW) 13:10:23 437.505/2401.250
O/OREOS (USA 219) 31 Mar 13:07:34 13:11:28 28° 60° (ENE) 13:15:24 437.305
Oscar 19 31 Mar 13:12:35 13:17:33 54° 73° (ENE) 13:22:34 437.125/150
TISAT 1 31 Mar 13:31:39 13:35:49 65° 285° (WNW) 13:39:58 437.305
SWISSCUBE 31 Mar 13:42:29 13:46:23 25° 94° (E) 13:50:21 437.505
BEESAT 31 Mar 13:45:05 13:48:56 25° 94° (E) 13:52:52 436.000
Gurwin Techsat 1B 31 Mar 13:46:03 13:50:33 30° 68° (ENE) 13:55:10 435.225
SPROUT 31 Mar 13:50:27 13:54:20 33° 288° (WNW) 13:58:09 437.525
JUGNU 31 Mar 13:58:25 13:59:15 10° 174° (S) 14:00:08 437.505
JAS-2 31 Mar 14:12:03 14:13:22 11° 52° (NE) 14:15:13 435.910
ITAMSAT 1 31 Mar 14:22:44 14:27:57 82° 77° (ENE) 14:33:13 435.822/435.867
AIST 1 31 Mar 14:26:09 14:29:10 19° 72° (ENE) 14:32:17
